Hourly Data Report for February 05, 2019

All times are specified in Local Standard Time (LST). Add 1 hour to adjust for Daylight Saving Time where and when it is observed.

KELOWNA
BRITISH COLUMBIA
Current Station Operator: NAVCAN

49°57'26.000" N
119°22'40.000" W
433.10 m
1123939
71203
YLW

Download Data

Hourly Data (February 2019)
Hourly Data Report for February 5, 2019
TIME Temp Definition
°C
Dew Point Definition
°C
Rel Hum Definition
%
Wind Dir Definition
10's deg

Wind Spd Definition
km/h
Visibility Definition
km
Stn Press Definition
kPa
Hmdx Definition


Wind Chill Definition


Weather Definition


00:00 -18.0 -21.0 78   0 16.1 96.54     LegendNANA
01:00 -18.5 -21.6 77 LegendMM 4 16.1 96.54   -22 LegendNANA
02:00 -19.0 -21.6 80 LegendMM 4 16.1 96.57   -22 LegendNANA
03:00 -18.9 -21.4 81 LegendMM 4 16.1 96.58   -22 LegendNANA
04:00 -18.7 -21.5 79 1 5 16.1 96.56   -23 LegendNANA
05:00 -20.1 -22.2 84   0 16.1 96.60     LegendNANA
06:00 -20.2 -22.8 80 LegendMM 4 16.1 96.64   -24 LegendNANA
07:00 -19.6 -22.5 78 LegendMM 4 16.1 96.67   -23 LegendNANA
08:00 -20.3 -23.0 79 LegendMM 4 16.1 96.71   -24 LegendNANA
09:00 -16.7 -21.9 65 LegendMM 4 16.1 96.72   -20 LegendNANA
10:00 -14.7 -20.6 61 LegendMM 4 16.1 96.72   -18 LegendNANA
11:00 -13.4 -20.0 58 35 9 16.1 96.70   -19 LegendNANA
12:00 -12.0 -18.9 57 35 15 16.1 96.64   -19 LegendNANA
13:00 -12.2 -19.2 57 1 21 16.1 96.64   -21 LegendNANA
14:00 -11.7 -19.0 55 35 22 16.1 96.65   -20 LegendNANA
15:00 -11.8 -18.7 57 36 26 16.1 96.69   -21 LegendNANA
16:00 -11.7 -18.1 60 35 21 16.1 96.74   -20 LegendNANA
17:00 -11.8 -18.7 57 34 17 16.1 96.81   -19 LegendNANA
18:00 -12.3 -18.3 62 1 9 16.1 96.86   -18 LegendNANA
19:00 -12.4 -17.9 64 11 5 16.1 96.95   -16 LegendNANA
20:00 -13.3 -18.0 68   0 16.1 96.97     LegendNANA
21:00 -15.4 -19.0 74 6 5 16.1 97.06   -19 LegendNANA
22:00 -16.8 -19.4 81 4 8 16.1 97.13   -22 LegendNANA
23:00 -17.1 -19.2 84 36 8 16.1 97.21   -23 LegendNANA

Notes on Data Quality.

Legend

  • E = Estimated
  • M = Missing
  • NA = Not Available
Date modified: